Location: Splawn
(30.9202°N, 96.9858°W)
Time: 18:46:59
(UTC+00:00)

A-11 Canister half - All Passes

Search period start: 25 February 2020 00:00
Search period end: 06 March 2020 00:00
Orbit: 1517 x 1683 km, 47.2° (Epoch: 25 February)

Date Brightness Start Highest point End Pass type
(mag) Time Alt. Az. Time Alt. Az. Time Alt. Az.
25 Feb - 01:05:27 10° NW 01:13:51 30° N 01:22:00 10° ENE visible
25 Feb - 03:11:24 10° NW 03:20:49 54° NNE 03:29:55 10° ESE visible
25 Feb - 05:16:39 10° WNW 05:25:44 52° SW 05:34:35 10° SSE visible
25 Feb - 18:25:47 10° S 18:33:10 23° SE 18:40:28 10° ENE daylight
25 Feb - 20:27:07 10° SW 20:37:19 86° SE 20:47:19 10° NE daylight
25 Feb - 22:33:56 10° W 22:43:13 40° NNW 22:52:18 10° NE daylight
26 Feb - 00:42:22 10° NW 00:50:47 30° N 00:58:56 10° ENE visible
26 Feb - 02:48:27 10° NW 02:57:51 51° NNE 03:06:54 10° ESE visible
26 Feb - 04:53:40 10° WNW 05:02:52 56° SW 05:11:50 10° SSE visible
26 Feb - 18:03:19 10° S 18:10:17 21° SE 18:17:12 10° E daylight
26 Feb - 20:04:12 10° SW 20:14:22 81° SE 20:24:22 10° NE daylight
26 Feb - 22:10:47 10° W 22:20:11 41° NNW 22:29:21 10° NE daylight
27 Feb - 00:19:16 10° NW 00:27:41 30° N 00:35:52 10° ENE daylight
27 Feb - 02:25:29 10° NW 02:34:51 49° NNE 02:43:53 10° E visible
27 Feb - 04:30:41 10° WNW 04:40:00 60° SW 04:49:03 10° SSE visible
27 Feb - 06:41:16 10° WSW 06:43:31 11° WSW 06:45:45 10° SW night (unlit)
27 Feb - 17:40:56 10° SSE 17:47:25 19° SE 17:53:53 10° E daylight
27 Feb - 19:41:18 10° SW 19:51:26 77° SE 20:01:26 10° NE daylight
27 Feb - 21:47:39 10° W 21:57:08 43° NNW 22:06:26 10° NE daylight
27 Feb - 23:56:10 10° WNW 00:04:36 30° N 00:12:48 10° ENE daylight
28 Feb - 02:02:31 10° NW 02:11:52 47° NNE 02:20:51 10° E visible
28 Feb - 04:07:41 10° NW 04:17:07 64° SW 04:26:16 10° SSE visible
28 Feb - 06:17:07 10° W 06:20:42 13° WSW 06:24:16 10° SW night (unlit)
28 Feb - 17:18:36 10° SSE 17:24:34 17° ESE 17:30:29 10° E daylight
28 Feb - 19:18:24 10° SW 19:28:30 72° SE 19:38:28 10° NE daylight
28 Feb - 21:24:32 10° W 21:34:06 45° NNW 21:43:29 10° NE daylight
28 Feb - 23:33:03 10° WNW 23:41:31 30° N 23:49:45 10° ENE daylight
29 Feb - 01:39:34 10° NW 01:48:52 45° NNE 01:57:49 10° E visible
29 Feb - 03:44:43 10° NW 03:54:15 68° SW 04:03:28 10° SE visible
29 Feb - 05:53:23 10° W 05:57:52 14° WSW 06:02:20 10° SSW visible
29 Feb - 16:56:23 10° SSE 17:01:42 16° ESE 17:07:00 10° E daylight
29 Feb - 18:55:32 10° SW 19:05:34 68° SE 19:15:31 10° NE daylight
29 Feb - 21:01:25 10° W 21:11:04 47° NNW 21:20:33 10° NE daylight
29 Feb - 23:09:55 10° WNW 23:18:25 30° N 23:26:42 10° ENE daylight
01 Mar - 01:16:36 10° NW 01:25:51 43° NNE 01:34:46 10° E visible
01 Mar - 03:21:44 10° NW 03:31:22 73° SW 03:40:39 10° SE visible
01 Mar - 05:29:51 10° W 05:35:03 16° WSW 05:40:13 10° SSW visible
01 Mar - 16:34:19 10° SSE 16:38:51 14° ESE 16:43:22 10° E daylight
01 Mar - 18:32:40 10° SSW 18:42:38 64° SE 18:52:33 10° ENE daylight
01 Mar - 20:38:18 10° W 20:48:03 49° NNW 20:57:38 10° NE daylight
01 Mar - 22:46:47 10° WNW 22:55:20 30° N 23:03:39 10° NE daylight
02 Mar - 00:53:36 10° NW 01:02:50 42° NNE 01:11:42 10° E visible
02 Mar - 02:58:47 10° NW 03:08:28 78° SW 03:17:48 10° SE visible
02 Mar - 05:06:26 10° W 05:12:14 18° WSW 05:17:59 10° SSW visible
02 Mar - 16:12:30 10° SE 16:16:00 12° ESE 16:19:30 10° E daylight
02 Mar - 18:09:50 10° SSW 18:19:44 60° SE 18:29:34 10° ENE daylight
02 Mar - 20:15:13 10° WSW 20:25:01 51° NNW 20:34:42 10° NE daylight
02 Mar - 22:23:39 10° WNW 22:32:14 31° N 22:40:37 10° NE daylight
03 Mar - 00:30:38 10° NW 00:39:48 40° NNE 00:48:38 10° E visible
03 Mar - 02:35:48 10° NW 02:45:34 82° SW 02:54:57 10° SE visible
03 Mar - 04:43:05 10° W 04:49:25 20° SW 04:55:39 10° SSW visible
03 Mar - 15:51:16 10° SE 15:53:09 11° ESE 15:55:01 10° ESE daylight
03 Mar - 17:47:01 10° SSW 17:56:49 56° SE 18:06:34 10° ENE daylight
03 Mar - 19:52:07 10° WSW 20:02:00 54° NNW 20:11:46 10° NE daylight
03 Mar - 22:00:31 10° WNW 22:09:09 31° N 22:17:35 10° NE daylight
04 Mar - 00:07:38 10° NW 00:16:46 39° NNE 00:25:34 10° E daylight
04 Mar - 02:12:50 10° NW 02:22:39 87° SW 02:32:05 10° SE visible
04 Mar - 04:19:48 10° WNW 04:26:35 22° SW 04:33:16 10° S visible
04 Mar - 17:24:13 10° SSW 17:33:54 52° SE 17:43:34 10° ENE daylight
04 Mar - 19:29:03 10° WSW 19:38:59 56° NNW 19:48:50 10° NE daylight
04 Mar - 21:37:21 10° WNW 21:46:03 31° N 21:54:33 10° NE daylight
04 Mar - 23:44:38 10° NW 23:53:43 38° NNE 00:02:29 10° E daylight
05 Mar - 01:49:53 10° NW 01:59:44 88° NE 02:09:12 10° SE visible
05 Mar - 03:56:34 10° WNW 04:03:45 24° SW 04:10:48 10° S visible
05 Mar - 17:01:27 10° SSW 17:11:00 49° SE 17:20:34 10° ENE daylight
05 Mar - 19:06:00 10° WSW 19:15:59 59° NNW 19:25:55 10° NE daylight
05 Mar - 21:14:12 10° WNW 21:22:57 32° N 21:31:32 10° NE daylight
05 Mar - 23:21:38 10° NW 23:30:40 37° NNE 23:39:24 10° E daylight
